Regional Weather Roundup
Issued by NWS

Home | Current Version | Previous Version | Text Only | Print | Product List | Glossary Off
Versions: 1 2 3 4 5 6 7 8 9 10 11 12 13 14 15 16 17 18 19 20 21 22 23 24 25 26 27 28 29 30 31 32 33 34 35 36 37 38 39 40 41 42 43 44 45 46 47 48 49 50

000
ASUS43 KFSD 271402
RWRSD

WEATHER ROUNDUP FOR SOUTH DAKOTA
NATIONAL WEATHER SERVICE SIOUX FALLS SD
900 AM CDT TUE SEP 27 2016

NOTE: "FAIR" INDICATES FEW OR NO CLOUDS BELOW 12,000 FEET WITH NO
SIGNIFICANT WEATHER AND/OR OBSTRUCTIONS TO VISIBILITY.


SDZ001>005-009-010-012>017-271500-
NORTHWEST AND NORTH CENTRAL SOUTH DAKOTA

CITY           SKY/WX    TMP DP  RH WIND       PRES   REMARKS
BUFFALO          N/A     49  44  83 W6        29.98S
MOBRIDGE       SUNNY     51  44  77 NW5       30.00F
$$

SDZ012>016-024>037-041>051-057-063-072>074-271500-
SOUTHWEST AND SOUTH CENTRAL SOUTH DAKOTA

CITY           SKY/WX    TMP DP  RH WIND       PRES   REMARKS
RAPID CTY ARPT SUNNY     54  46  74 W3        30.08S
PIERRE         SUNNY     49  40  71 CALM      30.02F
CUSTER         SUNNY     57  38  48 W5        30.19S
ELLSWORTH AFB  SUNNY     52  45  77 W7        30.06F
PHILIP         SUNNY     45  40  82 CALM      30.06S
PINE RIDGE     SUNNY     42  37  82 CALM      30.11F HAZE
WINNER         FAIR      54  42  64 SW6       30.06S
$$

SDZ004>011-016>023-039-040-271500-
NORTHEAST SOUTH DAKOTA

CITY           SKY/WX    TMP DP  RH WIND       PRES   REMARKS
ABERDEEN       SUNNY     51  39  63 NW7       29.99F
WATERTOWN      SUNNY     49  39  68 W7        29.97F
SISSETON         N/A     52  37  56 NW10      29.94S
$$

SDZ017-020-022-023-036>040-048>070-271500-
SOUTHEAST SOUTH DAKOTA

CITY           SKY/WX    TMP DP  RH WIND       PRES   REMARKS
SIOUX FALLS    SUNNY     53  40  61 W8        30.00F
HURON          SUNNY     47  39  74 W6        30.01F
CHAMBERLAIN    SUNNY     51  44  75 W3        30.04S
MITCHELL       SUNNY     50  40  68 W8        30.03S
YANKTON        SUNNY     48  45  87 W3        30.02S
$$

ABBREVIATIONS USED IN REMARKS
   TC - TEMPERATURE IN CELSIUS
  WCI - WIND CHILL INDEX
   HX - HEAT INDEX
  VSB - VISIBILITY





USA.gov is the U.S. government's official web portal to all federal, state and local government web resources and services.